Location: Jabiru
(12.6667°S, 132.8333°E)
Time: 15:45:13
(UTC+09:30)

N. Korean satellite - Visible Passes

Search period start: 04 August 2020 00:00
Search period end: 14 August 2020 00:00
Orbit: 453 x 506 km, 97.2° (Epoch: 03 August)

Date Brightness Start Highest point End Pass type
(mag) Time Alt. Az. Time Alt. Az. Time Alt. Az.
04 Aug 9.8 04:52:26 10° E 04:53:20 11° ESE 04:54:13 10° ESE visible
04 Aug 7.9 06:23:34 10° NNW 06:26:22 21° W 06:29:12 10° SW visible
05 Aug 6.6 05:56:58 10° N 06:00:30 57° W 06:04:07 10° SSW visible
06 Aug 7.5 05:31:12 10° NNE 05:34:42 48° ESE 05:38:16 10° S visible
07 Aug 9.3 05:06:19 10° ENE 05:08:57 19° ESE 05:11:36 10° SSE visible
08 Aug 7.4 06:12:58 10° NNW 06:16:12 30° W 06:19:30 10° SW visible
09 Aug 6.5 05:46:43 10° N 05:50:21 87° W 05:54:04 10° SSW visible
10 Aug 8.3 05:21:15 10° NE 05:24:33 33° ESE 05:27:56 10° SSE visible
11 Aug 9.7 04:56:56 10° ENE 04:58:49 14° ESE 05:00:44 10° SE visible
11 Aug 8.2 06:29:23 10° NW 06:31:53 18° W 06:34:26 10° SW visible
12 Aug 6.9 06:02:30 10° N 06:06:00 45° W 06:09:35 10° SSW visible
13 Aug 7.1 05:36:33 10° NNE 05:40:10 63° E 05:43:52 10° S visible
